Location: Omaha
(41.2590°N, 95.9380°W)
Time: 05:34:01
(UTC-06:00)

Envisat - Pass Details

Date: 11 October 2017
Orbit: 764 x 766 km, 98.2° (Epoch: 10 December)

Event Time Altitude Azimuth Distance (km) Brightness Sun altitude
Exits shadow 19:30:41 10° 74° (ENE) 2,311 4.8 -8.7°
Reaches altitude 10° 19:30:43 10° 74° (ENE) 2,307 4.8 -8.7°
Maximum altitude 19:32:04 11° 58° (ENE) 2,237 4.9 -8.9°
Drops below altitude 10° 19:33:25 10° 43° (NE) 2,311 5.1 -9.2°
Sets 19:37:37 0° 9° (N) 3,244 6.1 -10.0°
